Temp
75 78 81 82 82 83 84 83 83 83 83 83 83 83 83 83 83 84 84 84 84 84 83 84 84 83 84 84 84 84 84 83 84 84 84 84 83 83 83 84 85 84 83
77 78 81 82 82 84 83 83 83 83 83 83 83 83 83 83 84 84 84 84 84 83 84 83 84 84 84 84 84 84 84 84 84 84 85 84 83 83 83 84 84 83 82
82 83 82 82 82 83 83 83 83 83 83 83 83 83 83 83 84 84 84 84 83 84 84 84 84 84 84 84 84 84 84 84 84 83 85 86 83 83 83 83 83 82 81
87 85 83 82 81 83 82 82 83 83 84 84 84 84 83 83 84 84 84 84 84 84 84 85 84 84 84 84 83 83 83 83 84 83 83 87 88 83 83 83 82 82 81
87 89 85 82 83 83 83 83 83 83 84 84 84 84 84 84 84 84 85 84 84 84 84 84 84 84 83 83 83 83 83 83 84 85 83 85 84 83 83 83 82 82 83
88 90 83 83 83 83 83 83 83 84 84 84 84 84 84 84 84 84 84 84 84 84 84 84 84 84 84 83 83 83 84 84 85 89 85 83 82 83 83 83 83 82 82
87 88 86 83 83 83 83 83 83 84 83 84 84 84 84 84 84 84 84 84 84 84 84 84 84 84 84 83 83 84 83 84 85 89 86 84 80 82 83 83 82 82 81
89 90 86 83 83 83 83 83 84 84 84 84 84 84 84 84 84 84 84 85 84 84 84 84 84 84 84 84 84 84 83 84 89 89 86 82 80 82 83 83 82 82 82
90 89 86 86 85 84 83 84 84 84 84 84 84 84 84 84 84 84 84 84 84 84 84 84 84 84 84 84 83 83 83 84 84 88 87 82 80 82 83 82 82 82 82
90 89 87 85 85 84 85 84 84 84 85 85 85 85 85 85 85 85 83 84 84 84 84 84 84 84 84 83 83 83 83 84 87 87 87 82 81 82 83 83 82 82 82
89 88 87 86 85 85 85 85 84 85 85 85 85 85 85 87 86 84 85 84 85 85 85 84 84 84 83 83 83 83 84 84 78 87 85 80 81 83 83 82 82 82 82
85 86 85 87 84 86 89 83 85 86 86 85 86 85 85 84 84 90 87 84 85 85 85 84 84 83 84 86 85 83 83 85 87 88 84 81 81 83 83 82 81 81 81
88 89 87 83 84 87 85 85 86 84 88 86 86 85 87 86 87 87 83 85 83 84 85 84 83 84 86 87 86 86 86 87 86 86 83 81 81 82 82 82 81 81 81
90 90 89 88 85 82 87 88 87 90 89 88 87 87 86 85 85 85 86 82 82 84 82 85 87 85 88 87 86 86 87 87 87 83 84 82 81 82 82 82 81 81 81
90 91 88 89 88 84 89 85 89 85 90 89 88 86 87 86 83 87 86 87 86 80 85 85 85 85 85 85 85 85 86 87 88 88 85 83 81 81 82 82 82 82 81
92 91 90 87 88 89 89 87 88 89 85 91 85 87 86 86 85 85 83 83 85 85 85 75 75 82 82 85 83 84 84 85 86 86 88 84 82 81 81 82 82 82 82
92 92 90 89 89 87 88 88 89 88 91 87 88 85 86 85 84 84 84 84 84 83 86 78 74 81 78 84 83 83 83 84 85 85 86 86 83 81 81 81 81 81 82
92 90 89 93 89 87 87 87 88 89 89 89 90 88 87 89 88 86 85 85 86 83 83 83 83 79 80 79 78 81 82 83 84 84 85 86 85 87 81 81 81 81 81
91 89 89 90 88 87 87 86 87 87 89 89 89 90 90 88 89 85 85 85 85 85 84 83 83 81 80 80 80 82 81 81 83 89 85 84 85 86 84 82 80 80 81
91 90 89 89 89 87 86 85 84 83 85 86 86 86 89 91 90 85 86 84 83 83 81 78 78 80 80 78 83 86 81 82 83 83 84 89 86 87 87 83 81 81 81
92 89 87 87 85 86 85 83 83 83 83 84 78 79 79 88 89 85 83 81 78 76 73 70 72 74 74 76 73 76 80 83 83 84 86 87 87 87 87 85 84 83 82
90 88 87 87 85 85 85 84 83 84 83 85 89 87 88 87 86 85 80 78 78 76 72 72 71 72 72 72 69 69 69 76 82 85 85 87 87 88 88 86 85 83 84
90 89 87 87 86 84 85 85 85 85 86 81 85 88 89 88 87 85 83 81 78 77 75 74 72 72 71 72 72 70 67 69 74 82 83 85 86 86 87 85 85 84 82
93 92 89 88 87 86 85 85 85 85 79 83 85 87 87 88 87 85 84 83 80 78 76 76 76 76 74 72 72 72 71 70 67 67 81 82 84 83 81 82 85 85 83
95 94 91 88 87 88 86 86 86 84 86 87 87 82 84 85 87 88 85 83 82 80 78 78 78 77 75 74 72 71 70 69 69 67 66 75 83 83 83 82 84 83 83
97 95 92 87 86 87 87 86 84 84 84 83 81 81 83 83 83 84 84 81 81 80 80 79 78 78 76 75 74 74 71 70 67 67 67 69 72 80 84 85 84 83 84
MSLP
1015.30 1015.10 1015.16 1015.24 1015.34 1015.28 1015.48 1015.58 1015.73 1015.82 1015.98 1016.12 1016.36 1016.47 1016.46 1016.67 1016.79 1016.93 1017.07 1017.24 1017.40 1017.43 1017.53 1017.62 1017.78 1017.91 1018.02 1018.01 1017.98 1018.15 1018.13 1018.05 1018.17 1018.36 1018.33 1018.44 1018.65 1018.74 1018.77 1018.69 1018.43 1019.00 1019.22
1015.03 1015.31 1015.22 1015.53 1015.45 1015.60 1015.78 1015.92 1016.03 1016.21 1016.42 1016.62 1016.86 1017.00 1016.92 1017.16 1017.20 1017.34 1017.44 1017.61 1017.68 1017.99 1017.95 1018.05 1018.15 1018.18 1018.35 1018.39 1018.37 1018.35 1018.40 1018.37 1018.46 1018.57 1018.59 1018.68 1019.01 1019.06 1019.05 1019.07 1018.96 1019.46 1019.65
1014.80 1015.38 1015.54 1015.73 1015.81 1015.83 1016.10 1016.36 1016.56 1016.64 1016.85 1017.03 1017.27 1017.33 1017.42 1017.50 1017.62 1017.70 1017.75 1017.96 1018.12 1018.12 1018.25 1018.33 1018.45 1018.51 1018.64 1018.73 1018.72 1018.48 1018.69 1018.68 1018.76 1018.93 1018.63 1018.52 1019.14 1019.42 1019.44 1019.54 1019.66 1019.86 1019.98
1014.29 1015.14 1015.64 1015.87 1016.10 1016.22 1016.46 1016.85 1017.02 1017.16 1017.24 1017.39 1017.52 1017.69 1017.77 1017.81 1017.78 1017.91 1018.05 1018.15 1018.25 1018.34 1018.52 1018.60 1018.68 1018.75 1018.81 1018.94 1018.98 1018.71 1018.83 1018.96 1019.03 1018.87 1018.74 1018.79 1018.90 1019.71 1019.78 1019.88 1020.03 1020.21 1020.29
1013.84 1014.46 1015.54 1016.02 1016.14 1016.46 1016.75 1016.99 1017.21 1017.42 1017.64 1017.67 1017.82 1017.88 1018.00 1018.02 1018.01 1018.08 1018.27 1018.37 1018.47 1018.64 1018.75 1018.78 1018.78 1018.94 1019.00 1019.11 1019.17 1018.84 1018.74 1018.87 1018.86 1018.75 1018.80 1018.74 1019.03 1019.86 1020.06 1020.14 1020.23 1020.38 1020.40
1013.88 1014.58 1015.86 1016.20 1016.44 1016.73 1016.97 1017.17 1017.44 1017.65 1017.77 1017.93 1017.98 1017.99 1018.04 1018.17 1018.17 1018.28 1018.43 1018.51 1018.67 1018.78 1018.90 1019.01 1019.03 1019.13 1019.22 1019.20 1019.19 1018.95 1018.70 1018.52 1018.52 1017.93 1018.48 1018.92 1019.28 1020.00 1020.15 1020.30 1020.32 1020.46 1020.64
1014.26 1015.07 1015.90 1016.37 1016.70 1017.10 1017.28 1017.50 1017.65 1017.85 1018.02 1018.14 1018.17 1018.20 1018.16 1018.33 1018.50 1018.55 1018.60 1018.59 1018.82 1018.92 1018.97 1019.07 1019.18 1019.16 1019.25 1019.32 1019.20 1018.98 1018.71 1018.60 1018.44 1017.94 1018.46 1019.08 1019.66 1020.01 1020.24 1020.38 1020.51 1020.61 1020.73
1014.08 1014.90 1015.97 1016.51 1016.87 1017.16 1017.38 1017.58 1017.86 1018.14 1018.30 1018.36 1018.35 1018.38 1018.53 1018.69 1018.75 1018.68 1018.71 1018.76 1018.81 1018.96 1019.00 1019.10 1019.18 1019.26 1019.30 1019.30 1019.20 1018.94 1018.59 1018.54 1018.20 1017.86 1018.57 1019.18 1019.54 1019.90 1020.22 1020.43 1020.59 1020.68 1020.78
1014.31 1014.98 1015.93 1016.40 1016.86 1017.20 1017.46 1017.72 1017.96 1018.15 1018.36 1018.50 1018.52 1018.58 1018.68 1018.68 1018.76 1018.67 1018.78 1018.90 1018.93 1018.96 1019.09 1019.08 1019.20 1019.26 1019.30 1019.24 1019.09 1018.78 1018.78 1018.81 1018.60 1017.90 1018.57 1019.08 1019.48 1019.76 1020.06 1020.30 1020.51 1020.64 1020.74
1014.26 1014.80 1015.52 1016.26 1016.75 1017.06 1017.52 1017.85 1018.06 1018.24 1018.45 1018.66 1018.78 1018.78 1018.76 1018.88 1018.86 1018.79 1018.78 1018.91 1018.99 1019.03 1018.98 1019.09 1019.12 1019.18 1019.20 1019.13 1018.94 1018.56 1018.76 1018.57 1018.18 1018.15 1018.17 1018.64 1019.16 1019.50 1019.90 1020.10 1020.36 1020.49 1020.61
1014.48 1014.99 1015.44 1016.01 1016.59 1016.86 1017.27 1017.75 1018.08 1018.27 1018.46 1018.63 1018.70 1018.66 1018.66 1018.57 1018.74 1018.83 1018.81 1018.78 1018.79 1018.82 1018.85 1018.82 1018.83 1018.88 1018.92 1018.82 1018.61 1018.28 1018.54 1018.42 1017.80 1018.23 1018.09 1018.54 1018.86 1019.17 1019.65 1019.96 1020.11 1020.33 1020.43
1014.66 1015.17 1015.69 1015.80 1016.37 1016.60 1016.79 1017.72 1017.81 1018.00 1018.24 1018.41 1018.35 1018.33 1018.24 1018.16 1018.50 1018.18 1018.53 1018.67 1018.54 1018.52 1018.57 1018.51 1018.39 1018.36 1018.39 1018.06 1017.90 1018.10 1018.16 1017.99 1017.72 1017.44 1017.92 1018.42 1018.50 1018.83 1019.30 1019.67 1019.90 1020.02 1020.20
1014.16 1014.84 1015.49 1015.91 1016.10 1016.28 1016.77 1017.18 1017.29 1017.57 1017.57 1017.84 1017.86 1018.08 1017.84 1017.83 1017.87 1017.87 1018.03 1018.18 1018.19 1017.90 1017.90 1018.22 1018.32 1018.18 1017.63 1017.23 1017.28 1017.57 1017.56 1017.15 1017.22 1017.40 1018.21 1018.08 1018.15 1018.40 1018.88 1019.16 1019.50 1019.67 1019.88
1013.35 1014.11 1014.98 1015.15 1015.66 1016.29 1016.20 1016.37 1016.54 1016.50 1016.77 1017.08 1017.30 1017.63 1017.90 1017.98 1017.86 1017.78 1017.73 1017.80 1017.44 1017.34 1017.52 1017.60 1017.67 1017.67 1017.36 1017.31 1017.07 1017.16 1017.17 1016.96 1016.90 1016.90 1017.56 1017.68 1017.72 1018.12 1018.40 1018.66 1018.95 1019.26 1019.40
1013.05 1013.75 1014.63 1015.09 1015.51 1015.96 1015.46 1015.78 1015.81 1016.09 1016.24 1016.38 1016.73 1017.18 1017.47 1017.63 1017.65 1017.44 1017.41 1017.26 1016.92 1017.49 1017.42 1017.61 1017.69 1017.86 1017.72 1017.51 1017.28 1017.08 1017.11 1016.84 1016.53 1016.52 1016.70 1017.02 1017.14 1017.69 1018.01 1018.20 1018.32 1018.64 1018.91
1013.00 1013.63 1014.47 1015.12 1015.36 1015.66 1015.79 1015.86 1015.85 1015.96 1016.25 1016.06 1016.42 1016.60 1017.14 1017.30 1017.32 1017.34 1017.30 1017.13 1017.00 1017.34 1017.64 1018.80 1019.47 1018.20 1018.05 1017.50 1017.08 1016.93 1016.96 1016.90 1016.51 1016.26 1016.12 1016.35 1016.74 1017.10 1017.45 1017.60 1017.70 1017.89 1018.23
1013.11 1013.74 1014.34 1014.92 1015.37 1015.72 1016.01 1016.04 1016.03 1016.17 1016.00 1016.24 1016.22 1016.44 1016.66 1016.94 1017.06 1017.25 1017.19 1017.04 1016.98 1017.25 1017.56 1018.20 1019.13 1018.42 1018.52 1017.32 1016.95 1016.54 1016.80 1016.71 1016.43 1016.12 1015.87 1015.81 1016.05 1016.36 1016.69 1017.18 1017.20 1017.18 1017.41
1012.96 1013.62 1014.18 1014.54 1015.16 1015.73 1016.00 1016.06 1016.17 1016.16 1016.04 1015.94 1015.80 1015.72 1015.99 1016.34 1016.60 1016.93 1017.17 1016.91 1016.64 1016.89 1017.22 1017.52 1017.90 1017.94 1017.73 1017.35 1016.75 1016.54 1016.45 1016.28 1016.02 1015.75 1015.53 1015.40 1015.44 1015.50 1015.86 1016.22 1016.37 1016.66 1016.64
1012.80 1013.53 1013.98 1014.40 1014.92 1015.45 1015.73 1016.12 1016.12 1016.12 1016.01 1015.99 1015.84 1015.70 1015.69 1015.94 1016.20 1016.66 1016.83 1016.83 1016.57 1016.44 1016.54 1016.87 1016.94 1017.15 1016.84 1016.11 1016.22 1016.23 1016.22 1016.06 1015.76 1015.19 1014.93 1014.77 1014.74 1014.70 1014.94 1015.18 1015.59 1015.89 1016.09
1012.67 1013.43 1013.99 1014.43 1014.85 1015.29 1015.66 1016.04 1016.09 1016.18 1016.00 1015.92 1015.72 1015.43 1015.42 1015.56 1015.92 1016.30 1016.54 1016.73 1016.64 1016.68 1016.59 1016.69 1016.72 1016.58 1016.38 1015.56 1015.73 1015.58 1016.00 1015.96 1015.48 1015.14 1014.56 1014.02 1013.98 1013.99 1014.03 1014.20 1014.55 1014.99 1015.38
1012.47 1013.26 1013.85 1014.33 1014.85 1015.25 1015.61 1015.97 1016.03 1015.94 1015.90 1015.74 1016.06 1016.56 1015.62 1015.60 1015.80 1016.16 1016.79 1016.97 1017.09 1017.06 1017.21 1016.60 1017.26 1017.20 1017.19 1017.16 1016.83 1016.75 1016.27 1015.58 1015.15 1014.60 1014.12 1013.56 1013.29 1013.24 1013.30 1013.37 1013.51 1013.94 1014.31
1012.02 1012.79 1013.49 1013.99 1014.58 1015.12 1015.46 1015.61 1015.79 1015.84 1015.63 1015.55 1015.18 1015.32 1015.24 1015.52 1015.68 1015.93 1016.38 1016.88 1016.86 1016.86 1017.24 1017.13 1017.80 1017.75 1017.19 1017.41 1017.80 1017.58 1016.67 1015.25 1014.43 1014.10 1013.93 1013.33 1012.72 1012.41 1012.48 1012.59 1012.74 1012.93 1013.04
1011.31 1012.16 1012.92 1013.58 1014.08 1014.68 1015.14 1015.28 1015.35 1015.44 1015.31 1015.43 1015.19 1015.10 1015.10 1015.29 1015.20 1015.25 1015.68 1015.97 1016.33 1016.47 1016.51 1016.72 1016.96 1017.18 1017.04 1016.68 1016.98 1017.24 1016.60 1015.67 1014.58 1013.64 1013.00 1012.72 1012.40 1012.04 1011.94 1011.79 1012.04 1012.26 1012.33
1010.49 1011.40 1012.20 1013.00 1013.56 1014.18 1014.63 1014.79 1014.81 1014.91 1015.14 1014.94 1014.86 1014.79 1014.90 1014.78 1014.60 1014.74 1014.94 1015.17 1015.65 1015.98 1016.26 1016.30 1016.16 1016.16 1016.04 1015.99 1016.00 1016.04 1016.28 1015.94 1016.02 1015.02 1013.18 1012.42 1012.01 1011.48 1011.35 1011.48 1011.48 1011.40 1011.51
1009.78 1010.56 1011.48 1012.42 1013.08 1013.52 1014.08 1014.43 1014.55 1014.79 1014.60 1014.52 1014.73 1014.97 1014.86 1014.65 1014.38 1014.35 1014.31 1014.70 1015.16 1015.44 1015.56 1015.60 1015.55 1015.46 1015.50 1015.41 1015.21 1015.35 1015.49 1015.58 1016.12 1016.31 1014.53 1013.08 1012.00 1011.40 1011.14 1011.10 1011.07 1010.85 1010.87
1009.14 1009.86 1010.74 1011.78 1012.60 1013.14 1013.48 1013.98 1014.37 1014.56 1014.75 1014.78 1015.07 1015.25 1014.96 1014.81 1014.72 1014.48 1014.60 1014.75 1014.82 1015.06 1015.07 1015.12 1015.09 1014.92 1014.84 1014.76 1014.69 1014.56 1014.56 1014.62 1014.73 1014.71 1014.40 1013.58 1012.82 1011.54 1011.02 1010.53 1010.34 1010.21 1010.05
Wind_Speed
5 5 12 11 13 16 16 15 15 15 16 16 15 15 15 14 14 13 12 11 11 10 14 14 14 13 11 13 13 12 12 14 13 13 15 15 12 10 7 9 14 13 12
11 8 9 12 14 15 15 14 14 15 15 14 13 12 13 13 13 13 13 11 11 13 14 15 14 14 13 12 11 11 8 9 11 13 15 15 14 14 13 15 17 11 10
15 14 12 13 13 13 14 14 13 14 14 14 12 11 12 13 13 12 12 13 13 14 14 14 13 14 13 10 9 8 6 7 8 8 14 10 9 12 13 13 13 11 10
16 16 13 15 14 12 13 13 13 13 13 12 11 11 12 11 12 14 14 11 13 14 13 13 13 13 13 11 8 4 2 1 3 5 5 2 12 11 12 11 10 10 12
15 16 17 16 15 14 14 12 13 13 12 11 11 11 11 11 11 12 12 13 14 12 11 11 14 13 14 12 7 3 3 4 6 7 9 4 10 9 9 10 11 8 6
13 18 17 16 15 14 13 11 12 12 12 11 11 11 11 11 10 12 11 12 11 12 11 9 13 12 11 11 7 5 6 8 11 2 10 14 10 9 9 10 10 10 10
16 17 16 15 14 13 12 12 12 11 11 11 12 12 11 11 10 10 12 10 11 10 11 10 10 10 9 6 4 4 8 8 8 4 10 10 9 10 8 9 9 8 8
13 18 15 15 14 13 13 12 11 11 12 11 12 10 10 9 8 9 10 9 9 10 10 9 8 7 5 3 1 4 9 9 10 7 12 9 12 11 9 7 7 7 6
16 16 13 13 13 14 13 12 11 10 11 10 10 9 9 10 11 11 9 9 8 8 8 7 7 5 3 2 3 8 8 10 8 3 12 7 12 12 10 7 6 5 5
14 14 13 12 11 11 10 11 11 10 9 10 9 9 9 8 10 11 11 9 8 7 8 7 6 5 4 5 8 10 7 11 7 8 7 8 15 13 11 9 8 5 5
11 11 11 12 11 10 9 10 9 11 10 9 7 8 7 6 8 11 7 10 10 9 8 8 8 8 8 10 12 14 8 3 5 4 6 18 16 14 12 10 9 8 8
14 12 10 11 8 9 9 9 8 9 7 7 7 7 7 5 8 5 8 11 11 11 10 10 11 11 10 8 7 12 5 7 8 5 6 16 16 15 13 11 10 10 9
15 13 10 11 12 10 9 8 5 5 6 6 6 6 5 3 4 4 4 6 6 12 7 8 8 7 11 4 4 6 6 5 3 5 7 17 16 16 14 13 12 12 11
17 18 15 10 8 9 8 9 9 7 6 6 7 5 1 3 3 3 3 3 7 0 7 8 5 5 2 2 5 4 5 6 3 3 8 16 15 14 15 15 14 13 13
14 10 15 8 3 5 4 3 1 5 5 7 7 8 5 4 4 3 4 3 5 4 4 1 3 4 2 5 4 5 5 8 8 3 6 16 14 15 15 16 16 15 15
10 11 14 11 5 3 0 5 3 2 2 2 2 6 7 4 3 3 3 4 6 3 4 9 18 6 3 6 5 5 6 6 7 6 1 6 15 16 16 18 18 17 16
10 10 11 10 10 6 4 3 1 4 4 1 5 10 11 8 6 5 4 5 5 2 3 8 18 5 6 6 5 4 5 8 7 7 5 4 8 17 17 18 18 19 18
10 9 12 10 11 8 6 4 4 5 3 4 5 2 6 5 3 3 5 6 6 4 4 4 4 7 7 6 5 4 6 6 8 7 6 5 5 8 15 20 20 20 20
11 9 8 7 10 10 7 5 5 6 3 4 5 4 4 7 6 5 5 5 6 5 3 5 4 4 5 7 7 9 7 6 6 8 8 8 9 6 7 16 20 21 21
12 10 9 7 6 7 5 4 3 3 3 4 5 4 5 2 3 4 4 5 5 6 6 11 8 4 5 5 5 6 4 7 7 8 9 8 8 10 10 9 10 12 20
12 11 9 9 9 6 6 6 3 4 4 4 4 10 13 5 4 4 2 5 5 4 2 11 8 6 7 9 6 8 10 9 10 9 10 10 11 11 10 10 6 8 11
13 12 11 10 10 7 5 4 3 3 3 3 4 4 5 5 4 3 5 5 7 6 7 10 10 7 5 2 7 9 6 7 8 11 11 11 13 10 10 10 10 9 10
14 13 12 11 10 9 8 6 4 4 4 4 5 2 1 4 7 7 6 6 8 6 5 9 8 12 9 7 11 6 4 5 5 7 14 12 13 9 10 8 10 12 9
15 14 12 12 9 11 10 7 6 3 3 4 5 4 3 6 8 7 7 7 6 5 8 8 8 9 8 8 4 9 7 3 5 12 12 7 12 9 7 5 6 9 11
15 14 13 12 11 8 10 7 5 6 5 2 3 7 5 5 4 6 5 6 2 4 5 7 8 7 6 8 7 5 6 9 11 12 10 13 11 5 5 6 9 6 6
14 14 15 14 10 9 9 9 7 4 2 3 4 3 4 4 4 5 6 5 3 4 5 5 6 7 7 8 8 9 8 6 8 10 12 11 15 13 7 10 10 9 9
Wind_Direction
92 83 111 107 108 104 106 105 103 97 96 90 86 79 84 88 93 91 95 98 94 87 90 88 89 91 93 91 87 83 88 91 97 95 96 91 76 63 69 120 109 95 97
119 98 102 110 113 111 105 104 105 101 99 93 88 80 80 80 91 87 88 95 94 91 95 94 96 91 78 79 97 95 110 109 111 118 114 98 80 68 68 66 80 93 93
131 133 127 124 114 104 106 104 104 101 100 98 95 84 85 86 89 89 91 94 96 92 90 94 95 94 94 86 81 96 103 111 121 145 153 118 95 86 84 83 90 105 93
134 139 139 130 139 130 107 105 102 105 100 100 94 90 91 91 86 88 90 94 96 93 97 104 108 105 102 98 86 83 75 108 164 199 245 145 99 90 92 97 94 91 102
142 143 134 147 143 133 128 118 111 105 102 101 99 102 96 94 96 95 96 97 95 97 103 105 108 96 94 96 91 55 358 339 301 255 241 152 96 107 101 110 111 102 103
131 114 137 143 144 139 128 123 113 109 108 109 112 108 103 96 92 96 95 99 97 106 109 103 101 102 96 95 70 6 341 323 320 88 88 73 89 112 103 105 105 111 109
118 123 136 141 142 141 129 124 114 115 115 120 111 108 105 99 94 97 103 111 112 115 116 111 110 100 101 95 68 340 307 312 290 105 108 106 112 115 118 122 119 121 124
128 125 137 140 144 138 135 128 125 122 120 121 124 114 106 106 107 104 109 111 117 123 122 128 119 115 111 110 91 286 297 316 324 127 121 118 127 121 122 110 126 134 134
126 127 136 142 148 150 147 143 142 133 129 132 128 133 139 143 139 125 115 117 121 119 130 135 144 141 152 172 254 270 291 316 306 265 121 132 138 137 141 141 141 156 153
144 140 140 147 156 160 156 155 155 147 142 140 146 163 175 167 151 142 141 137 140 153 157 168 172 180 208 232 250 261 281 305 302 315 124 133 153 151 156 160 166 166 161
123 132 141 147 155 157 148 156 162 166 167 165 177 201 210 207 181 164 134 158 166 177 184 188 196 202 217 241 241 252 244 260 253 255 134 153 159 152 167 176 179 186 186
138 133 142 147 147 164 159 149 177 175 186 196 200 190 217 204 172 143 174 186 188 195 197 207 211 217 215 237 207 241 252 205 238 154 131 160 159 158 173 183 189 193 198
140 156 159 153 170 170 151 172 183 183 188 202 203 185 259 357 175 196 173 193 207 208 198 204 220 227 217 234 108 204 208 261 276 114 166 167 165 165 181 187 196 200 205
166 149 153 173 174 164 186 176 192 176 184 187 187 190 269 291 247 271 245 158 224 88 261 191 213 221 79 284 307 298 298 270 239 156 175 176 167 176 188 193 197 206 208
131 143 138 156 161 189 182 208 140 130 186 194 159 177 196 225 259 219 221 276 297 150 203 253 342 289 270 198 243 271 254 277 294 285 163 172 166 188 198 200 199 206 212
137 147 136 146 160 157 149 322 83 287 207 250 172 164 173 224 264 319 246 237 247 269 75 52 340 295 260 244 195 250 256 266 273 276 244 163 185 194 203 207 202 204 212
148 164 140 151 162 160 206 249 256 280 210 263 238 144 181 189 209 243 283 283 287 211 148 154 205 256 284 263 238 227 270 246 246 262 269 220 185 198 203 214 210 205 207
162 162 154 179 159 175 192 195 215 246 277 219 254 228 179 182 214 246 283 282 267 267 184 202 213 219 216 250 257 231 229 237 250 234 229 227 238 203 203 210 212 214 208
151 160 166 167 158 173 164 205 219 255 288 297 308 302 219 188 202 207 243 276 298 314 286 221 237 247 253 232 218 235 228 237 251 262 227 220 224 229 180 203 213 214 217
152 165 174 163 175 169 171 216 256 265 264 257 251 257 286 264 265 235 248 266 297 319 339 337 315 302 269 233 308 309 205 233 236 245 253 245 223 223 223 204 199 213 215
165 170 179 179 171 185 189 200 206 234 234 241 79 297 306 336 253 273 296 295 296 294 108 265 294 310 312 311 328 294 287 291 241 238 243 233 227 226 229 207 201 202 206
171 174 176 187 171 188 197 232 178 228 260 259 245 212 200 234 233 249 251 243 259 263 202 229 251 282 271 301 287 280 264 275 259 250 247 248 232 224 225 214 215 208 208
175 177 179 189 177 175 212 221 184 232 236 248 240 217 288 269 253 228 234 245 250 265 249 228 228 244 259 250 213 232 286 249 300 268 235 237 240 228 223 221 212 221 213
180 174 176 178 188 177 198 235 220 232 221 218 208 184 195 248 248 235 226 236 248 267 268 250 253 255 269 263 234 229 230 275 300 306 304 265 240 220 206 223 234 212 208
182 174 172 175 181 196 184 227 222 219 257 10 27 24 344 299 321 266 276 306 282 244 269 287 284 280 279 274 257 235 225 227 229 256 276 284 288 266 226 216 231 237 226
185 178 168 167 177 187 178 187 232 285 328 351 10 309 286 349 331 349 29 0 333 319 311 312 303 287 264 269 266 266 247 218 211 235 241 262 268 283 261 226 218 219 226